Volver al catálogo

SL-14 R/B

ActivoPO
NORAD 14700·ROCKET BODY·🇷🇺 Russia

Lanzado Feb 8, 1984 desde Plesetsk Cosmodrome

Loading…

Próximos Pases (próximas 24 horas)

TLE

ActualizadoSource: Space-Track

Época: Sep 14, 2026, 10:43 UTC

1 14700U 84013B   26257.44668983  .00000328  00000-0  34897-4 0  9996
2 14700  82.5333 238.9873 0018467 349.6311 167.6506 14.85724128280598

Sigue SL-14 R/B en tiempo real con AllMySat

Download on the App Store